Location: Bonningues
(50.7927°N, 2.0150°E)
Time: 07:00:52
(UTC+00:00)

Cosmos 2322 Rocket - Pass Details

Date: 08 August 2020
Orbit: 831 x 852 km, 71.0° (Epoch: 26 September)

Event Time Altitude Azimuth Distance (km) Brightness Sun altitude
Rises 21:55:08 0° 330° (NNW) 3,417 7.1 -18.2°
Reaches altitude 10° 21:57:36 10° 333° (NNW) 2,481 5.9 -18.4°
Maximum altitude 22:03:18 75° 59° (ENE) 883 2.2 -18.9°
Enters shadow 22:05:53 34° 138° (SE) 1,373 2.8 -19.1°
